This demonstration page uses our WeatherBlox Daily Observations layout. Learn more.

Left ArrowRight Arrow

Hourly Observations for September 23, 2018

Temp ( °F °C ) Dew Point ( °F °C ) Humidity (%) Winds ( mph kmh ) Pressure ( in mb ) Visibility ( mi km ) Precip ( " mm )
12:53 am 00:53 Clear 59 15 52 11.1 78 78 N 6 9 30.01 1016 10 16 0.00 0.00
1:53 am 01:53 Clear 57 13.9 53 11.7 87 87 NNE 5 7 30.00 1016 10 16 0.00 0.00
2:53 am 02:53 Clear 56 13.3 52 11.1 87 87 NNW 7 11 29.99 1016 10 16 0.00 0.00
3:53 am 03:53 Clear 54 12.2 51 10.6 90 90 N 6 9 29.98 1015 10 16 0.00 0.00
4:53 am 04:53 Clear 54 12.2 50 10 87 87 N 7 11 29.96 1015 10 16 0.00 0.00
5:53 am 05:53 Clear 53 11.7 50 10 89 89 N 6 9 29.96 1015 10 16 0.00 0.00
6:53 am 06:53 Clear 51 10.6 49 9.4 92 92 N 7 11 29.98 1015 10 16 0.00 0.00
7:53 am 07:53 Sunny 51 10.6 49 9.4 92 92 N 6 9 30.00 1016 10 16 0.00 0.00
8:53 am 08:53 Sunny 57 13.9 51 10.6 81 81 NNE 6 9 30.01 1016 10 16 0.00 0.00
9:53 am 09:53 Sunny 66 18.9 53 11.7 63 63 NE 3 6 30.00 1016 10 16 0.00 0.00
10:53 am 10:53 Sunny 72 22.2 55 12.8 55 55 Calm 30.01 1016 10 16 0.00 0.00
11:53 am 11:53 Sunny 76 24.4 50 10 40 40 Calm 30.00 1016 10 16 0.00 0.00
12:53 pm 12:53 Sunny 78 25.6 49 9.4 36 36 Calm 29.98 1015 10 16 0.00 0.00
1:53 pm 13:53 Sunny 80 26.7 47 8.3 31 31 SW 3 6 29.94 1014 10 16 0.00 0.00
2:53 pm 14:53 Sunny 82 27.8 47 8.3 29 29 VRB 3 6 29.91 1013 10 16 0.00 0.00
3:53 pm 15:53 Sunny 82 27.8 46 7.8 28 28 Calm 29.88 1012 10 16 0.00 0.00
4:53 pm 16:53 Sunny 84 28.9 47 8.3 27 27 VRB 6 9 29.86 1011 10 16 0.00 0.00
5:53 pm 17:53 Sunny 83 28.3 45 7.2 26 26 WSW 5 7 29.85 1011 10 16 0.00 0.00
6:53 pm 18:53 Sunny 82 27.8 46 7.8 28 28 Calm 29.85 1011 10 16 0.00 0.00
7:53 pm 19:53 Clear 77 25 51 10.6 40 40 SW 6 9 29.86 1011 10 16 0.00 0.00
8:53 pm 20:53 Clear 71 21.7 52 11.1 51 51 S 10 17 29.86 1011 10 16 0.00 0.00
9:53 pm 21:53 Clear 66 18.9 53 11.7 63 63 S 7 11 29.87 1012 10 16 0.00 0.00
10:53 pm 22:53 Clear 65 18.3 53 11.7 66 66 S 6 9 29.86 1011 10 16 0.00 0.00
11:53 pm 23:53 Clear 62 16.7 53 11.7 73 73 SSE 8 13 29.87 1011 10 16 0.00 0.00

Powered by AerisWeather